TimeEST,TemperatureF,Dew PointF,Humidity,Sea Level PressureIn,VisibilityMPH,Wind Direction,Wind SpeedMPH,Gust SpeedMPH,PrecipitationIn,Events,Conditions,WindDirDegrees,DateUTC
12:14 AM,35.6,35.6,100,29.72,6.0,South,8.1,-,N/A,,Overcast,190,2008-11-30 05:14:00
12:29 AM,35.6,35.6,100,29.71,6.0,SSE,5.8,-,N/A,,Overcast,160,2008-11-30 05:29:00
12:54 AM,36.0,36.0,100,29.69,4.0,SE,4.6,-,N/A,,Overcast,140,2008-11-30 05:54:00
1:05 AM,35.6,35.6,100,29.69,5.0,South,4.6,-,N/A,,Overcast,180,2008-11-30 06:05:00
1:54 AM,36.0,35.1,97,29.68,3.0,South,8.1,-,0.00,Rain,Light Rain,170,2008-11-30 06:54:00
2:01 AM,35.6,35.6,100,29.67,2.5,South,8.1,-,0.00,Rain,Light Rain,170,2008-11-30 07:01:00
2:08 AM,35.6,35.6,100,29.67,3.0,South,8.1,-,0.01,Rain,Light Rain,170,2008-11-30 07:08:00
2:37 AM,35.6,35.6,100,29.67,6.0,SSW,6.9,-,0.05,Rain,Light Rain,200,2008-11-30 07:37:00
2:47 AM,35.6,35.6,100,29.67,6.0,South,6.9,-,0.06,Rain,Light Rain,170,2008-11-30 07:47:00
2:54 AM,36.0,35.1,97,29.69,7.0,SSW,8.1,-,0.06,Rain,Light Rain,200,2008-11-30 07:54:00
3:54 AM,36.0,35.1,97,29.65,10.0,South,5.8,-,0.05,Rain,Light Rain,180,2008-11-30 08:54:00
4:05 AM,35.6,35.6,100,29.63,9.0,South,6.9,-,0.00,Rain,Light Rain,180,2008-11-30 09:05:00
4:34 AM,35.6,35.6,100,29.60,9.0,South,4.6,-,0.01,Rain,Light Rain,170,2008-11-30 09:34:00
4:43 AM,35.6,35.6,100,29.61,9.0,SSW,4.6,-,0.02,Rain,Light Rain,200,2008-11-30 09:43:00
4:54 AM,36.0,35.1,97,29.62,10.0,South,3.5,-,0.02,Rain,Light Rain,190,2008-11-30 09:54:00
5:54 AM,36.0,35.1,97,29.60,6.0,SW,4.6,-,0.05,Rain,Light Rain,220,2008-11-30 10:54:00
6:16 AM,35.6,35.6,100,29.58,6.0,South,6.9,-,0.03,Rain,Rain,180,2008-11-30 11:16:00
6:54 AM,36.0,35.1,97,29.58,7.0,SSE,10.4,-,0.10,Rain,Rain,160,2008-11-30 11:54:00
7:24 AM,35.6,35.6,100,29.50,4.0,South,8.1,-,0.03,Rain,Light Rain,180,2008-11-30 12:24:00
7:54 AM,36.0,35.1,97,29.55,4.0,WSW,5.8,-,0.03,,Overcast,240,2008-11-30 12:54:00
8:11 AM,35.6,35.6,100,29.51,10.0,SW,3.5,-,0.00,Rain,Light Rain,220,2008-11-30 13:11:00
8:54 AM,36.0,35.1,97,29.52,4.0,Calm,Calm,-,0.00,Rain,Light Rain,0,2008-11-30 13:54:00
9:54 AM,36.0,36.0,100,29.49,2.5,South,3.5,-,0.02,Rain,Light Rain,170,2008-11-30 14:54:00
10:06 AM,37.4,35.6,93,29.48,3.0,Calm,Calm,-,0.00,Rain,Light Rain,0,2008-11-30 15:06:00
10:35 AM,37.4,35.6,93,29.47,2.5,SSE,5.8,-,0.01,Rain,Light Rain,160,2008-11-30 15:35:00
10:54 AM,37.0,37.0,100,29.49,2.0,South,5.8,-,0.02,Rain,Light Rain,190,2008-11-30 15:54:00
10:58 AM,37.4,35.6,93,29.49,1.0,South,5.8,-,0.00,Rain,Light Rain,170,2008-11-30 15:58:00
11:14 AM,37.4,37.4,100,29.48,1.0,SSE,4.6,-,0.01,,Overcast,160,2008-11-30 16:14:00
11:54 AM,37.0,37.0,100,29.44,1.0,SSE,3.5,-,0.03,Rain,Light Rain,160,2008-11-30 16:54:00
12:54 PM,37.9,37.9,100,29.40,1.0,SSW,5.8,-,0.01,,Overcast,200,2008-11-30 17:54:00
1:01 PM,37.4,37.4,100,29.38,2.0,South,5.8,-,N/A,,Overcast,190,2008-11-30 18:01:00
1:35 PM,39.2,37.4,93,29.38,2.0,SSE,6.9,-,0.01,Rain,Light Rain,160,2008-11-30 18:35:00
1:52 PM,39.2,37.4,93,29.38,2.0,SSE,5.8,-,0.01,,Overcast,160,2008-11-30 18:52:00
1:54 PM,39.0,37.9,96,29.39,2.0,SSE,5.8,-,0.01,,Overcast,160,2008-11-30 18:54:00
2:41 PM,39.2,37.4,93,29.35,2.0,SE,5.8,-,0.01,Rain,Light Rain,140,2008-11-30 19:41:00
2:54 PM,39.0,37.9,96,29.36,2.0,SSE,8.1,-,0.01,,Overcast,160,2008-11-30 19:54:00
3:54 PM,39.0,37.9,96,29.34,2.0,SSE,5.8,-,0.00,,Overcast,160,2008-11-30 20:54:00
4:54 PM,39.9,39.0,97,29.36,2.0,SSE,5.8,-,0.00,,Overcast,150,2008-11-30 21:54:00
5:01 PM,39.2,39.2,100,29.35,3.0,SSE,6.9,-,N/A,,Overcast,150,2008-11-30 22:01:00
5:54 PM,39.9,39.0,97,29.36,3.0,SSE,3.5,-,N/A,,Overcast,160,2008-11-30 22:54:00
6:54 PM,41.0,39.0,93,29.38,3.0,SSW,11.5,17.3,N/A,,Overcast,200,2008-11-30 23:54:00
7:54 PM,37.9,37.9,100,29.41,10.0,South,4.6,-,N/A,,Scattered Clouds,180,2008-12-01 00:54:00
8:54 PM,37.0,36.0,96,29.43,10.0,Calm,Calm,-,N/A,,Clear,0,2008-12-01 01:54:00
9:54 PM,37.0,35.1,93,29.46,10.0,SSW,8.1,-,N/A,,Clear,200,2008-12-01 02:54:00
10:54 PM,37.0,35.1,93,29.47,10.0,South,4.6,-,N/A,,Mostly Cloudy,190,2008-12-01 03:54:00
11:54 PM,35.6,35.6,100,29.47,10.0,SSW,4.6,-,N/A,,Mostly Cloudy,200,2008-12-01 04:54:00